Weather reports worldwide

Advertisment
Solenzara, France (7765): temperature & dewpoint: 13.12.2018 05:00:00 - 19.12.2018 05:00:00 (CET)Solenzara, France (7765): temperature 5cm: 13.12.2018 05:00:00 - 19.12.2018 05:00:00 (CET)Solenzara, France (7765): temperature -20cm: 13.12.2018 05:00:00 - 19.12.2018 05:00:00 (CET)Solenzara, France (7765): wind speed & gusts: 13.12.2018 05:00:00 - 19.12.2018 05:00:00 (CET)Solenzara, France (7765): wind direction: 13.12.2018 05:00:00 - 19.12.2018 05:00:00 (CET)Solenzara, France (7765): reduced air pressure: 13.12.2018 05:00:00 - 19.12.2018 05:00:00 (CET)Solenzara, France (7765): visibility: 13.12.2018 05:00:00 - 19.12.2018 05:00:00 (CET)Solenzara, France (7765): sunshine duration: 13.12.2018 05:00:00 - 19.12.2018 05:00:00 (CET)Solenzara, France (7765): precipitation: 13.12.2018 05:00:00 - 19.12.2018 05:00:00 (CET)
Date & Time tt [°C] td [°C] tt 5cm [°C] tt -20cm [°C] ff [km/h] ff [kn] fx [km/h] fx [kn] dd ppp [hPa] vv [km] sd [min] rr [mm]
19.12.2018 05:00:00 6,2 2,3 4,8 10,9 12 6 21 12 W 1024,1 60 0 0,0
19.12.2018 04:00:00 6,4 2,1 5,0 11,0 12 6 22 12 W 1024,5 60 0 0,0
19.12.2018 03:00:00 6,6 2,5 5,0 11,1 13 7 22 12 W 1025,2 60 0 0,0
19.12.2018 02:00:00 6,4 2,3 4,8 11,1 11 6 21 11 W 1025,2 60 0 0,0
19.12.2018 01:00:00 6,2 2,6 4,8 11,2 13 7 18 10 WNW 1025,4 60 0 0,0
19.12.2018 00:00:00 6,7 3,1 4,7 11,3 10 5 19 10 W 1025,8 60 0 0,0
18.12.2018 23:00:00 7,0 3,2 5,4 11,3 11 6 23 12 W 1026,2 59 0 0,0
18.12.2018 22:00:00 7,2 3,6 5,4 11,4 11 6 21 11 W 1026,1 59 0 0,0
18.12.2018 21:00:00 7,4 4,0 6,0 11,4 12 7 21 11 W 1026,2 58 0 0,0
18.12.2018 20:00:00 7,8 4,4 6,4 11,4 12 6 23 12 W 1026,5 50 0 0,0
18.12.2018 19:00:00 7,9 5,0 6,6 11,4 12 6 21 11 W 1026,7 59 0 0,0
18.12.2018 18:00:00 8,6 5,7 7,1 11,4 11 6 21 12 W 1026,3 60 0 0,0
18.12.2018 17:00:00 9,5 6,4 7,9 11,3 10 5 14 8 W 1026,2 58 7 0,0
18.12.2018 16:00:00 13,2 5,4 10,3 11,1 2 1 10 5 SSW 1026,0 60 60 0,0
18.12.2018 15:00:00 13,5 5,4 14,1 11,0 6 3 12 7 SE 1026,0 60 60 0,0
18.12.2018 14:00:00 14,3 6,9 20,3 10,8 5 3 12 6 ESE 1026,6 48 60 6,9
18.12.2018 13:00:00 14,2 6,3 19,4 10,7 6 3 14 8 E 1026,9 20 60 0,0
18.12.2018 12:00:00 14,5 5,8 18,7 10,6 4 2 8 5 N 1027,7 53 60 0,0
18.12.2018 11:00:00 13,9 7,4 16,4 10,6 0 0 11 6 N 1028,5 52 60 0,0
18.12.2018 10:00:00 10,6 4,9 10,3 10,7 9 5 19 10 W 1028,3 37 60 0,0
18.12.2018 09:00:00 8,3 3,3 5,2 10,7 13 7 24 13 W 1027,7 42 60 0,0
18.12.2018 08:00:00 6,5 2,0 4,8 10,8 13 7 27 14 W 1027,3 60 2 0,0
18.12.2018 07:00:00 6,2 1,7 4,5 10,9 16 8 24 13 W 1027,2 60 0 0,0
18.12.2018 06:00:00 6,0 1,7 4,4 11,0 14 8 24 13 W 1026,8 60 0 0,0
18.12.2018 05:00:00 6,1 1,6 4,3 11,0 14 8 24 13 W 1026,7 60 0 0,0
18.12.2018 04:00:00 6,1 1,6 4,5 11,1 14 8 26 14 W 1026,9 60 0 0,0
18.12.2018 03:00:00 6,0 1,9 4,2 11,2 15 8 24 13 W 1026,6 60 0 0,0
18.12.2018 02:00:00 6,0 1,9 4,0 11,3 10 5 21 12 WNW 1026,2 60 0 0,0
18.12.2018 01:00:00 6,4 2,1 4,7 11,4 15 8 25 13 W 1025,5 60 0 0,0
18.12.2018 00:00:00 6,5 2,4 4,7 11,5 14 7 21 11 W 1025,8 60 0 0,0
17.12.2018 23:00:00 7,4 2,3 4,6 11,5 14 7 22 12 W 1025,6 60 0 0,0
17.12.2018 22:00:00 7,0 2,5 4,3 11,6 13 7 20 11 W 1025,5 60 0 0,0
17.12.2018 21:00:00 6,7 3,3 3,5 11,7 8 4 19 11 W 1024,8 60 0 0,0
17.12.2018 20:00:00 7,2 4,0 5,3 11,7 10 5 18 10 W 1024,2 60 0 0,0
17.12.2018 19:00:00 7,2 4,8 4,8 11,8 10 5 16 9 W 1023,4 60 0 0,0
17.12.2018 18:00:00 7,3 4,9 4,4 11,8 8 4 13 7 W 1022,2 57 0 0,0
17.12.2018 17:00:00 9,0 5,6 6,8 11,8 10 5 30 16 NNW 1020,9 60 0 0,0
17.12.2018 16:00:00 10,2 6,0 9,2 11,7 21 11 33 18 N 1019,6 47 37 0,0
17.12.2018 15:00:00 10,7 6,1 9,3 11,7 27 14 40 22 N 1018,7 60 20 0,0
17.12.2018 14:00:00 9,4 7,0 8,1 11,7 22 12 40 22 N 1017,4 51 0 0,0
17.12.2018 13:00:00 9,3 6,9 8,4 11,7 31 17 44 24 NNE 1016,5 4,3 2 0,0
17.12.2018 12:00:00 10,8 9,1 10,0 11,6 13 7 23 12 N 1015,9 54 10 0,0
17.12.2018 11:00:00 10,4 8,7 10,1 11,6 14 7 23 12 N 1016,2 29 0 0,0
17.12.2018 10:00:00 10,3 8,7 9,7 11,6 11 6 25 14 NNW 1015,9 56 0 0,0
17.12.2018 09:00:00 9,9 8,7 9,3 11,6 3 2 17 9 N 1014,7 60 0 0,0
17.12.2018 08:00:00 10,0 8,8 9,0 11,6 13 7 23 13 NNE 1013,7 60 0 0,0
17.12.2018 07:00:00 10,4 9,2 9,3 11,6 15 8 22 12 N 1013,3 45 0 0,0
17.12.2018 06:00:00 10,5 9,1 8,7 11,6 2 1 15 8 NNW 1013,2 20 0 0,0
17.12.2018 05:00:00 10,7 9,5 7,7 11,6 7 4 13 7 NNW 1012,8 60 0 0,0
17.12.2018 04:00:00 9,8 8,9 8,0 11,7 6 3 13 7 E 1012,2 43 0 0,0
17.12.2018 03:00:00 9,8 8,9 7,6 11,7 6 3 14 7 S 1012,1 38 0 0,0
17.12.2018 02:00:00 10,3 9,2 7,5 11,7 0 0 15 8 N 1011,6 51 0 0,0
17.12.2018 01:00:00 10,1 9,2 7,2 11,7 6 3 16 8 NW 1011,1 51 0 0,0
17.12.2018 00:00:00 9,9 8,8 7,6 11,7 5 3 24 13 NW 1010,8 46 0 0,0
16.12.2018 23:00:00 10,2 9,3 7,5 11,7 20 11 32 18 N 1010,9 36 0 0,0
16.12.2018 22:00:00 9,3 8,5 7,1 11,7 8 4 14 8 NNW 1010,0 16 0 0,0
16.12.2018 21:00:00 9,3 8,4 7,3 11,7 6 4 9 5 WSW 1010,4 8 0 0,0
16.12.2018 20:00:00 9,8 8,7 9,2 11,7 3 2 12 7 NW 1011,6 16 0 0,0
16.12.2018 19:00:00 9,8 8,7 9,1 11,6 5 3 9 5 N 1012,4 6 0 0,0
16.12.2018 18:00:00 9,7 8,5 9,1 11,6 3 2 8 5 W 1013,3 7 0 0,0
16.12.2018 17:00:00 10,0 8,3 9,2 11,5 4 2 7 4 W 1014,7 10 0 0,0
16.12.2018 16:00:00 10,6 7,7 9,9 11,4 4 2 7 4 WNW 1015,6 16 0 0,0
16.12.2018 15:00:00 11,1 7,2 11,2 11,3 4 2 14 8 WNW 1016,1 45 0 0,0
16.12.2018 14:00:00 12,5 7,4 13,4 11,2 9 5 14 8 N 1016,6 52 0 0,0
16.12.2018 13:00:00 12,5 6,5 12,0 11,2 9 5 14 7 N 1017,5 54 19 0,0
16.12.2018 12:00:00 11,3 6,2 12,4 11,1 8 4 11 6 N 1018,2 56 4 0,0
16.12.2018 11:00:00 10,4 6,0 9,9 11,1 6 3 13 7 WNW 1019,3 55 0 0,0
16.12.2018 10:00:00 9,3 5,7 8,6 11,1 0 0 12 6 N 1019,3 53 0 0,0
16.12.2018 09:00:00 8,6 4,8 7,5 11,1 6 4 14 8 W 1019,3 59 0 0,0
16.12.2018 08:00:00 7,9 4,7 7,1 11,1 6 3 14 8 WNW 1019,5 60 0 0,0
16.12.2018 07:00:00 7,7 4,3 7,0 11,2 8 5 14 7 W 1019,1 60 0 0,0
16.12.2018 06:00:00 7,5 3,9 6,6 11,3 8 5 14 7 W 1018,8 60 0 0,0
16.12.2018 05:00:00 7,0 3,6 6,2 11,3 8 5 14 8 W 1019,1 60 0 0,0
16.12.2018 04:00:00 6,9 3,3 5,6 11,3 9 5 14 8 W 1019,6 60 0 0,0
16.12.2018 03:00:00 6,6 3,0 5,4 11,4 9 5 16 9 W 1019,9 60 0 0,0
16.12.2018 02:00:00 6,5 2,8 5,6 11,4 11 6 19 10 W 1020,0 60 0 0,0
16.12.2018 01:00:00 6,2 2,8 4,9 11,5 9 5 19 10 W 1020,4 59 0 0,0
16.12.2018 00:00:00 5,9 2,5 4,6 11,5 11 6 20 11 W 1020,3 49 0 0,0
15.12.2018 23:00:00 6,0 2,8 4,7 11,6 11 6 18 10 W 1020,5 50 0 0,0
15.12.2018 22:00:00 6,6 3,2 5,0 11,6 11 6 18 10 W 1020,4 47 0 0,0
15.12.2018 21:00:00 6,8 3,9 4,9 11,6 9 5 14 8 W 1020,7 41 0 0,0
15.12.2018 20:00:00 7,8 4,0 6,1 11,6 8 4 13 7 W 1020,4 55 0 0,0
15.12.2018 19:00:00 7,7 3,7 6,2 11,6 7 4 10 5 W 1020,4 28 0 0,0
15.12.2018 18:00:00 8,5 3,7 6,6 11,6 6 3 9 5 WNW 1020,1 35 0 0,0
15.12.2018 17:00:00 9,1 3,5 7,0 11,6 4 2 13 7 NNW 1019,2 45 0 0,0
15.12.2018 16:00:00 10,0 3,3 9,5 11,5 9 5 16 9 NNW 1018,9 53 0 0,0
15.12.2018 15:00:00 10,1 3,1 10,2 11,4 10 5 25 13 N 1018,5 55 4 0,0
15.12.2018 14:00:00 10,4 3,9 10,8 11,3 16 9 24 13 NNE 1018,2 57 11 0,0
15.12.2018 13:00:00 11,0 3,3 11,5 11,3 8 4 20 11 N 1018,2 49 50 0,0
15.12.2018 12:00:00 10,8 3,3 11,1 11,2 9 5 20 11 NNE 1018,3 37 53 0,0
15.12.2018 11:00:00 10,7 4,4 9,0 11,3 11 6 22 12 N 1018,7 28 60 0,0
15.12.2018 10:00:00 8,7 2,9 7,0 11,3 11 6 18 10 NNW 1018,4 54 6 0,0
15.12.2018 09:00:00 6,0 2,8 4,2 11,4 9 5 16 9 W 1017,9 49 32 0,0
15.12.2018 08:00:00 5,0 2,2 3,7 11,4 10 5 18 10 W 1017,2 60 4 0,0
15.12.2018 07:00:00 5,7 2,3 4,7 11,5 10 5 17 9 W 1016,8 59 0 0,0
15.12.2018 06:00:00 5,6 2,6 3,6 11,6 10 6 20 11 W 1016,5 60 0 0,0
15.12.2018 05:00:00 5,1 2,3 3,6 11,7 11 6 20 11 W 1016,0 60 0 0,0
15.12.2018 04:00:00 5,3 2,6 3,6 11,8 11 6 20 11 W 1015,7 60 0 0,0
15.12.2018 03:00:00 5,3 3,0 3,6 11,8 10 6 18 10 W 1015,5 60 0 0,0
15.12.2018 02:00:00 5,6 3,3 3,9 11,9 11 6 22 12 W 1014,8 60 0 0,0
15.12.2018 01:00:00 6,0 3,5 4,2 12,0 9 5 16 9 W 1014,7 60 0 0,0
15.12.2018 00:00:00 6,4 3,9 4,2 12,0 10 6 18 10 W 1014,5 60 0 0,0
14.12.2018 23:00:00 6,4 3,7 4,8 12,1 8 4 16 9 W 1014,2 58 0 0,0
14.12.2018 22:00:00 7,1 3,9 5,3 12,1 8 5 11 6 W 1014,0 42 0 0,0
14.12.2018 21:00:00 8,5 5,2 6,8 12,1 5 3 12 6 W 1013,9 40 0 0,0
14.12.2018 20:00:00 9,0 4,8 7,0 12,1 6 3 11 6 NW 1013,7 54 0 0,0
14.12.2018 19:00:00 9,3 4,3 8,2 12,2 6 3 17 9 NNW 1013,0 60 0 0,0
14.12.2018 18:00:00 9,4 4,4 8,6 12,2 11 6 29 16 NNW 1012,2 58 0 0,0
14.12.2018 17:00:00 9,5 4,9 8,9 12,2 16 9 28 15 N 1011,5 55 0 0,0
14.12.2018 16:00:00 9,9 5,5 9,5 12,1 14 7 27 14 N 1010,9 60 0 0,0
14.12.2018 15:00:00 10,0 5,6 9,6 12,1 14 8 26 14 NNW 1010,6 60 0 0,0
14.12.2018 14:00:00 10,4 6,2 10,2 12,0 21 12 33 18 NNE 1010,4 60 0 0,0
14.12.2018 13:00:00 10,8 6,9 11,0 12,0 19 10 26 14 NNE 1010,3 56 0 0,0
14.12.2018 12:00:00 10,5 7,4 10,8 12,0 16 8 21 11 NNE 1010,1 47 0 0,0
14.12.2018 11:00:00 10,1 6,8 10,3 12,0 11 6 23 12 N 1010,3 60 0 0,0
14.12.2018 10:00:00 9,9 7,5 8,6 12,0 7 4 15 8 N 1009,9 60 0 0,0
14.12.2018 09:00:00 8,8 7,2 7,9 12,0 6 3 9 5 NNW 1009,6 60 0 0,0
14.12.2018 08:00:00 8,7 6,8 7,8 12,0 6 3 15 8 NW 1009,2 60 0 0,0
14.12.2018 07:00:00 8,6 6,7 7,9 12,0 5 3 14 8 NW 1009,0 60 0 0,0
14.12.2018 06:00:00 8,6 7,4 8,0 12,1 5 3 17 9 WNW 1008,7 56 0 0,0
14.12.2018 05:00:00 8,7 7,1 7,9 12,1 11 6 19 11 N 1008,6 60 0 0,0
14.12.2018 04:00:00 8,7 7,1 8,0 12,1 11 6 18 10 NNW 1009,1 11 0 0,0
14.12.2018 03:00:00 8,8 7,2 8,1 12,2 11 6 22 12 NNW 1009,4 9 0 0,0
14.12.2018 02:00:00 8,9 7,5 8,2 12,2 14 8 24 13 NNW 1009,4 9 0 0,0
14.12.2018 01:00:00 8,8 7,4 8,1 12,3 13 7 21 11 NNW 1009,3 11 0 0,0
14.12.2018 00:00:00 8,7 7,3 7,9 12,3 6 4 15 8 NW 1009,7 9 0 0,0
13.12.2018 23:00:00 8,5 7,0 7,9 12,3 11 6 16 9 NNW 1009,7 7 0 0,0
13.12.2018 22:00:00 8,4 7,2 7,9 12,4 8 4 14 8 NNW 1009,9 26 0 0,0
13.12.2018 21:00:00 8,7 7,3 8,1 12,4 7 4 11 6 NNW 1009,9 8 0 1,2
13.12.2018 20:00:00 8,8 7,4 8,1 12,4 7 4 11 6 NNW 1009,8 8 0 2,1
13.12.2018 19:00:00 8,9 7,5 8,2 12,4 8 4 17 9 NNW 1009,9 7 0 1,6
13.12.2018 18:00:00 8,9 7,5 8,2 12,4 9 5 18 10 NNW 1009,9 3,7 0 1,2
13.12.2018 17:00:00 9,2 8,0 8,6 12,4 14 8 19 10 N 1009,8 13 0 0,8
13.12.2018 16:00:00 9,5 7,9 8,8 12,4 10 5 13 7 N 1009,9 6 0 1,0
13.12.2018 15:00:00 9,6 7,5 9,0 12,4 8 5 16 9 NNW 1009,9 13 0 0,2
13.12.2018 14:00:00 9,9 7,8 9,5 12,4 6 4 12 6 NNW 1010,1 26 0 0,0
13.12.2018 13:00:00 10,2 8,1 9,9 12,4 9 5 17 9 NNW 1010,8 16 0 0,0
13.12.2018 12:00:00 10,8 7,5 10,5 12,3 12 6 20 11 N 1011,5 60 0 0,0
13.12.2018 11:00:00 10,7 7,2 10,6 12,4 10 5 33 18 NNW 1012,0 60 14 0,0
13.12.2018 10:00:00 11,1 7,6 11,2 12,4 21 12 32 18 N 1011,9 33 60 0,0
13.12.2018 09:00:00 10,5 7,4 6,6 12,4 18 10 29 15 N 1011,8 50 29 0,0
13.12.2018 08:00:00 8,7 4,9 7,1 12,5 6 3 19 10 WNW 1011,5 60 5 0,0
13.12.2018 07:00:00 8,4 5,0 6,4 12,5 9 5 16 9 W 1011,3 60 0 0,0
13.12.2018 06:00:00 8,1 5,0 6,5 12,6 8 4 16 8 W 1011,3 60 0 0,0
13.12.2018 05:00:00 8,6 5,2 7,1 12,6 11 6 19 11 W 1011,7 60 0 0,0

tt = temperature
td = dewpoint
tt 5cm = temperature 5cm
tt -20cm = temperature -20cm
ff = wind speed
fx = gusts
dd = wind direction
ppp = reduced air pressure
vv = visibility
sd = sunshine duration
rr = precipitation

Next stations